Weather reports worldwide

Advertisment
Bedford, United Kingdom (3560): temperature & dewpoint: 15.02.2018 19:00:00 - 21.02.2018 19:00:00 (GMT)Bedford, United Kingdom (3560): temperature -20cm & temperature -100cm: 15.02.2018 19:00:00 - 21.02.2018 19:00:00 (GMT)Bedford, United Kingdom (3560): wind speed & gusts: 15.02.2018 19:00:00 - 21.02.2018 19:00:00 (GMT)Bedford, United Kingdom (3560): wind direction: 15.02.2018 19:00:00 - 21.02.2018 19:00:00 (GMT)Bedford, United Kingdom (3560): reduced air pressure: 15.02.2018 19:00:00 - 21.02.2018 19:00:00 (GMT)Bedford, United Kingdom (3560): visibility: 15.02.2018 19:00:00 - 21.02.2018 19:00:00 (GMT)Bedford, United Kingdom (3560): precipitation: 15.02.2018 19:00:00 - 21.02.2018 19:00:00 (GMT)
Date & Time tt [°C] td [°C] tt -20cm [°C] tt -100cm [°C] ff [km/h] ff [kn] fx [km/h] fx [kn] dd ppp [hPa] vv [km] rr [mm]
21.02.2018 19:00:00 3,3 1,2 - - 9 5 - - NNE 1026,8 50 0,0
21.02.2018 18:00:00 4,1 1,6 - - 9 5 - - NNE 1026,6 40 0,0
21.02.2018 17:00:00 5,1 2,5 - - 16 9 - - NE 1026,2 40 0,0
21.02.2018 16:00:00 5,8 2,6 - - 11 6 - - NE 1026,2 50 0,0
21.02.2018 15:00:00 5,7 4,2 - - 11 6 - - ENE 1026,6 9 0,0
21.02.2018 14:00:00 5,4 4,0 - - 11 6 - - ENE 1027,0 5 0,0
21.02.2018 13:00:00 4,7 3,6 - - 4 2 - - W 1027,8 3,5 0,4
21.02.2018 12:00:00 4,1 2,5 - - 5 3 - - WNW 1028,3 4,8 0,0
21.02.2018 11:00:00 4,0 2,1 - - 4 2 - - NW 1028,5 5 0,0
21.02.2018 10:00:00 3,9 2,2 - - 5 3 - - N 1028,6 5 0,0
21.02.2018 09:00:00 3,1 2,4 5,7 6,0 5 3 - - NW 1028,5 3,7 0,0
21.02.2018 08:00:00 2,5 2,0 - - 8 4 - - N 1028,0 2,6 0,0
21.02.2018 07:00:00 2,4 1,9 - - 5 3 - - N 1028,0 2,2 0,0
21.02.2018 06:00:00 2,5 2,0 - - 8 4 - - NNE 1027,9 2,7 0,0
21.02.2018 05:00:00 2,5 1,9 - - 9 5 - - NNE 1027,9 3,0 0,0
21.02.2018 04:00:00 2,5 1,9 - - 11 6 - - NNE 1027,9 3,5 0,0
21.02.2018 03:00:00 2,6 1,9 - - 9 5 - - NNE 1027,9 3,2 0,0
21.02.2018 02:00:00 2,8 1,9 - - 8 4 - - ENE 1027,8 4,5 0,0
21.02.2018 01:00:00 3,5 2,5 - - 13 7 - - ENE 1027,3 5 0,0
21.02.2018 00:00:00 3,9 3,3 - - 11 6 - - NE 1026,6 3,9 0,0
20.02.2018 23:00:00 4,2 3,6 - - 11 6 - - NE 1026,0 5 0,2
20.02.2018 22:00:00 4,9 4,5 - - 13 7 - - NNE 1025,6 3,5 0,2
20.02.2018 21:00:00 5,3 4,8 - - 21 11 - - NNE 1025,0 4,8 0,4
20.02.2018 20:00:00 5,4 4,7 - - 28 15 - - N 1024,4 4,7 0,0
20.02.2018 19:00:00 6,7 3,3 - - 28 15 - - N 1023,8 35 0,0
20.02.2018 18:00:00 7,0 3,3 - - 24 13 55 30 N 1023,0 45 0,0
20.02.2018 17:00:00 7,7 2,8 - - 37 20 52 28 N 1022,2 40 0,0
20.02.2018 16:00:00 8,1 2,6 - - 34 18 52 28 N 1021,6 45 0,0
20.02.2018 15:00:00 8,7 2,7 - - 31 17 50 27 N 1021,1 50 0,0
20.02.2018 14:00:00 8,4 2,7 - - 26 14 - - N 1021,3 45 0,0
20.02.2018 13:00:00 8,9 3,2 - - 31 17 48 26 N 1021,4 30 0,0
20.02.2018 12:00:00 7,6 3,1 - - 31 17 50 27 NNW 1021,6 50 0,0
20.02.2018 11:00:00 7,3 3,4 - - 37 20 54 29 N 1021,5 35 0,0
20.02.2018 10:00:00 7,5 3,9 - - 37 20 50 27 NNW 1020,5 30 0,0
20.02.2018 09:00:00 7,3 5,1 5,2 5,9 29 16 - - NNW 1019,9 50 0,8
20.02.2018 08:00:00 7,2 6,6 - - 22 12 - - NW 1019,0 26 0,0
20.02.2018 07:00:00 7,8 7,2 - - 18 10 - - NW 1018,7 3,9 0,0
20.02.2018 06:00:00 7,3 6,7 - - 13 7 - - NW 1018,1 9 0,0
20.02.2018 05:00:00 7,2 7,1 - - 15 8 - - WNW 1018,2 4,3 0,0
20.02.2018 04:00:00 7,3 7,2 - - 11 6 - - NNW 1018,2 4,4 0,2
20.02.2018 03:00:00 7,5 7,4 - - 13 7 - - N 1017,9 4,4 0,2
20.02.2018 02:00:00 7,9 7,7 - - 5 3 - - N 1017,6 1,0 0,2
20.02.2018 01:00:00 7,9 7,7 - - 9 5 - - NNW 1017,6 2,8 0,0
20.02.2018 00:00:00 7,8 7,6 - - 9 5 - - N 1017,6 2,7 0,8
19.02.2018 23:00:00 7,9 7,6 - - 9 5 - - N 1017,1 2,2 0,2
19.02.2018 22:00:00 8,5 8,2 - - 9 5 - - N 1016,8 1,6 0,2
19.02.2018 21:00:00 8,8 8,2 - - 11 6 - - NW 1016,8 2,4 0,0
19.02.2018 20:00:00 9,4 8,1 - - 18 10 - - NW 1016,7 13 0,0
19.02.2018 19:00:00 9,5 8,2 - - 15 8 - - NW 1016,6 16 0,0
19.02.2018 18:00:00 9,6 8,5 - - 15 8 - - NW 1016,2 11 0,0
19.02.2018 17:00:00 9,9 8,9 - - 16 9 - - NW 1015,9 16 0,0
19.02.2018 16:00:00 9,9 9,2 - - 15 8 - - NW 1015,6 26 0,4
19.02.2018 15:00:00 9,8 9,4 - - 16 9 - - NW 1015,7 7 0,2
19.02.2018 14:00:00 9,8 9,1 - - 21 11 - - NW 1015,6 3,6 0,0
19.02.2018 13:00:00 9,8 9,2 - - 18 10 - - WNW 1015,7 12 0,0
19.02.2018 12:00:00 9,2 9,1 - - 15 8 - - WNW 1015,9 6 0,0
19.02.2018 11:00:00 8,2 8,1 - - 11 6 - - W 1016,2 2,4 0,2
19.02.2018 10:00:00 7,0 6,9 - - 11 6 - - W 1016,3 1,5 0,2
19.02.2018 09:00:00 6,4 6,2 4,5 5,9 11 6 - - WSW 1016,4 1,8 0,4
19.02.2018 08:00:00 6,1 5,9 - - 11 6 - - WSW 1016,6 1,9 0,4
19.02.2018 07:00:00 6,0 5,8 - - 9 5 - - SW 1016,6 1,8 0,6
19.02.2018 06:00:00 5,9 5,6 - - 9 5 - - SW 1016,7 1,5 0,2
19.02.2018 05:00:00 5,8 5,5 - - 9 5 - - SSW 1016,7 1,5 0,0
19.02.2018 04:00:00 5,7 5,3 - - 9 5 - - SSW 1017,4 3,0 0,0
19.02.2018 03:00:00 5,6 5,2 - - 9 5 - - SSW 1017,7 4,1 0,2
19.02.2018 02:00:00 5,3 4,8 - - 9 5 - - SSW 1018,2 4,4 0,0
19.02.2018 01:00:00 5,3 4,6 - - 9 5 - - SSW 1018,8 4,9 0,2
19.02.2018 00:00:00 5,5 4,4 - - 11 6 - - SSW 1019,2 8 0,0
18.02.2018 23:00:00 5,9 4,3 - - 13 7 - - SSW 1019,5 14 0,0
18.02.2018 22:00:00 5,6 3,7 - - 11 6 - - S 1019,7 30 0,0
18.02.2018 21:00:00 6,6 4,2 - - 9 5 - - SSW 1020,0 28 0,0
18.02.2018 20:00:00 6,7 4,0 - - 9 5 - - S 1020,2 50 0,0
18.02.2018 19:00:00 6,7 3,9 - - 8 4 - - S 1020,2 40 0,0
18.02.2018 18:00:00 7,2 4,1 - - 8 4 - - S 1020,3 40 0,0
18.02.2018 17:00:00 8,0 4,2 - - 9 5 - - SSE 1020,4 40 0,0
18.02.2018 16:00:00 8,4 4,1 - - 9 5 - - S 1020,8 50 0,0
18.02.2018 15:00:00 9,0 4,0 - - 15 8 - - S 1020,7 45 0,0
18.02.2018 14:00:00 9,5 4,4 - - 15 8 - - S 1020,9 19 0,0
18.02.2018 13:00:00 9,2 5,3 - - 16 9 - - S 1021,3 35 0,0
18.02.2018 12:00:00 8,2 6,3 - - 13 7 - - S 1021,6 23 0,0
18.02.2018 11:00:00 6,1 6,0 - - 11 6 - - S 1022,1 13 0,0
18.02.2018 10:00:00 4,6 4,5 - - 9 5 - - S 1022,0 4,4 0,0
18.02.2018 09:00:00 3,1 3,0 4,0 5,9 11 6 - - S 1022,4 0,3 0,2
18.02.2018 08:00:00 1,7 1,6 - - 8 4 - - S 1022,6 0,1 0,0
18.02.2018 07:00:00 0,9 0,7 - - 5 3 - - SSW 1022,8 0,1 0,0
18.02.2018 06:00:00 0,1 -0,1 - - 11 6 - - S 1022,2 2,1 0,0
18.02.2018 05:00:00 0,4 0,2 - - 11 6 - - SSE 1022,0 3,0 0,0
18.02.2018 04:00:00 0,7 0,4 - - 9 5 - - S 1022,5 0,7 0,0
18.02.2018 03:00:00 1,3 1,0 - - 8 4 - - S 1022,6 1,5 0,0
18.02.2018 02:00:00 1,2 0,7 - - 8 4 - - S 1022,9 4,9 0,0
18.02.2018 01:00:00 2,0 1,3 - - 8 4 - - SSW 1022,8 11 0,0
18.02.2018 00:00:00 2,3 1,4 - - 8 4 - - SSW 1022,9 19 0,0
17.02.2018 23:00:00 2,7 1,1 - - 9 5 - - SSW 1022,9 17 0,0
17.02.2018 22:00:00 2,6 0,9 - - 9 5 - - S 1023,0 24 0,0
17.02.2018 21:00:00 1,8 0,0 - - 8 4 - - S 1022,8 22 0,0
17.02.2018 20:00:00 3,4 1,3 - - 5 3 - - S 1022,5 30 0,0
17.02.2018 19:00:00 4,3 1,1 - - 11 6 - - SSW 1022,3 35 0,0
17.02.2018 18:00:00 6,2 2,2 - - 9 5 - - S 1021,9 25 0,0
17.02.2018 17:00:00 7,3 2,2 - - 11 6 - - SSW 1021,5 35 0,0
17.02.2018 16:00:00 8,1 1,9 - - 15 8 - - SSW 1021,5 50 0,0
17.02.2018 15:00:00 9,5 2,6 - - 13 7 - - SW 1021,4 35 0,0
17.02.2018 14:00:00 8,4 2,6 - - 15 8 - - SSW 1021,5 40 0,0
17.02.2018 13:00:00 8,2 2,7 - - 13 7 - - SW 1021,8 30 0,0
17.02.2018 12:00:00 8,8 2,8 - - 16 9 - - SSW 1022,0 18 0,0
17.02.2018 11:00:00 6,8 3,6 - - 11 6 - - S 1021,9 17 0,0
17.02.2018 10:00:00 3,5 2,2 - - 9 5 - - S 1022,0 16 0,0
17.02.2018 09:00:00 1,8 1,5 4,0 6,0 8 4 - - S 1021,9 8 0,0
17.02.2018 08:00:00 -0,3 -0,6 - - 9 5 - - S 1021,6 6 0,0
17.02.2018 07:00:00 -0,6 -1,0 - - 8 4 - - S 1021,5 8 0,0
17.02.2018 06:00:00 -0,8 -1,4 - - 5 3 - - SE 1021,5 13 0,0
17.02.2018 05:00:00 -0,9 -1,4 - - 9 5 - - SE 1021,5 14 0,0
17.02.2018 04:00:00 -0,9 -1,4 - - 9 5 - - SSE 1021,7 13 0,0
17.02.2018 03:00:00 -0,8 -1,5 - - 8 4 - - SE 1022,0 11 0,0
17.02.2018 02:00:00 0,2 -0,8 - - 8 4 - - SSE 1022,3 16 0,0
17.02.2018 01:00:00 0,9 -0,4 - - 9 5 - - S 1022,5 21 0,0
17.02.2018 00:00:00 0,8 -0,9 - - 8 4 - - SE 1022,8 17 0,0
16.02.2018 23:00:00 1,0 -1,1 - - 5 3 - - SE 1023,2 30 0,0
16.02.2018 22:00:00 1,3 -1,7 - - 11 6 - - SSE 1023,3 30 0,0
16.02.2018 21:00:00 2,3 -1,4 - - 11 6 - - SSE 1023,1 30 0,0
16.02.2018 20:00:00 2,4 -1,6 - - 9 5 - - S 1023,4 50 0,0
16.02.2018 19:00:00 3,1 -1,3 - - 9 5 - - SSE 1023,8 45 0,0
16.02.2018 18:00:00 4,3 -0,8 - - 8 4 - - S 1024,1 40 0,0
16.02.2018 17:00:00 6,0 0,8 - - 11 6 - - SSW 1023,9 50 0,0
16.02.2018 16:00:00 7,7 1,3 - - 9 5 - - SW 1023,8 50 0,0
16.02.2018 15:00:00 8,5 0,8 - - 13 7 - - WSW 1024,1 29 0,0
16.02.2018 14:00:00 8,5 0,8 - - 15 8 - - SW 1024,3 30 0,0
16.02.2018 13:00:00 7,9 1,9 - - 11 6 - - SW 1025,0 35 0,0
16.02.2018 12:00:00 7,2 2,0 - - 15 8 - - SW 1025,3 40 0,0
16.02.2018 11:00:00 6,0 2,7 - - 15 8 - - WSW 1025,4 23 0,0
16.02.2018 10:00:00 3,7 1,8 - - 11 6 - - SW 1025,2 30 0,0
16.02.2018 09:00:00 1,5 0,5 4,0 6,0 9 5 - - WSW 1024,7 24 0,0
16.02.2018 08:00:00 -0,3 -1,0 - - 13 7 - - WSW 1024,2 13 0,0
16.02.2018 07:00:00 -1,2 -1,9 - - 11 6 - - WSW 1023,7 17 0,0
16.02.2018 06:00:00 -0,2 -1,1 - - 11 6 - - WSW 1022,9 28 0,0
16.02.2018 05:00:00 -0,1 -1,0 - - 13 7 - - WSW 1022,5 30 0,0
16.02.2018 04:00:00 -0,2 -1,1 - - 9 5 - - WSW 1021,9 23 0,0
16.02.2018 03:00:00 0,6 -0,3 - - 11 6 - - WSW 1021,2 26 0,0
16.02.2018 02:00:00 1,1 0,1 - - 11 6 - - SW 1020,4 27 0,0
16.02.2018 01:00:00 1,5 0,3 - - 11 6 - - SW 1019,9 26 0,0
16.02.2018 00:00:00 1,8 0,2 - - 13 7 - - WSW 1019,0 35 0,0
15.02.2018 23:00:00 2,6 0,3 - - 15 8 - - WSW 1018,2 35 0,0
15.02.2018 22:00:00 2,7 -0,3 - - 15 8 - - WSW 1017,4 35 0,0
15.02.2018 21:00:00 3,2 -0,6 - - 15 8 - - WSW 1016,4 45 0,0
15.02.2018 20:00:00 3,5 -0,4 - - 13 7 - - WSW 1015,7 35 0,0
15.02.2018 19:00:00 3,9 0,0 - - 13 7 - - SW 1014,9 35 0,0

tt = temperature
td = dewpoint
tt -20cm = temperature -20cm
tt -100cm = temperature -100cm
ff = wind speed
fx = gusts
dd = wind direction
ppp = reduced air pressure
vv = visibility
rr = precipitation

Next stations